Weather History for Vagabond Aaf / Yakim, WA

Change the Weather History Date:

Tuesday, February 11, 2014

  Actual Average (KYKM) Record (KYKM)
Temperature  
Mean Temperature 29 °F 35 °F  
Max Temperature 39 °F 45 °F 61 °F (1971)
Min Temperature 19 °F 26 °F 5 °F (1948)
Degree Days  
Heating Degree Days 36 30  
Month to date heating degree days 335  
Since 1 July heating degree days 4053  
Cooling Degree Days 0 0  
Month to date cooling degree days 0  
Year to date cooling degree days 0  
Moisture  
Dew Point 25 °F    
Average Humidity 93    
Maximum Humidity 100    
Minimum Humidity 74    
Precipitation  
Precipitation 0.09 in 0.03 in 0.36 in (1958)
Month to date precipitation 0.32  
Year to date precipitation 1.46  
Snow  
Snow 0.00 in 0.10 in 2.80 in (1954)
Month to date snowfall 1.2  
Year to date snowfall 6.5  
Since 1 July snowfall 19.5  
Snow Depth -    
Sea Level Pressure  
Sea Level Pressure 30.01 in    
Wind  
Wind Speed 3 mph (WNW)    
Max Wind Speed 6 mph    
Max Gust Speed -    
Visibility 4 miles    
Events Fog , Rain , Snow    
T = Trace of Precipitation, MM = Missing Value Source: NWS Daily Summary

Daily Weather History Graph

Daily Weather History Graph

Search for Another Location

Airport:

Trip Planner

Search our weather history database for the weather conditions in past years. The results will help you decide how hot, cold, wet, or windy it might be!

Date:

Astronomy

Feb. 11, 2014 Rise Set
Actual Time 7:11 AM PST 5:20 PM PST
Civil Twilight 6:40 AM PST 5:52 PM PST
Nautical Twilight 6:04 AM PST 6:28 PM PST
Astronomical Twilight 5:29 AM PST 7:03 PM PST
Moon 2:41 PM PST (2/11) 4:57 AM PST (2/11)
Length of Visible Light 11h 12m
Length of Day
10h 09m
Waxing Gibbous, 91% of the Moon is Illuminated
Feb 11
Waxing Gibbous
Feb 14
Full
Feb 22
Last Quarter
Mar 1
New
Mar 8
First Quarter

Hourly Weather History & Observations

Time (PST) Temp. Windchill Dew Point Humidity Pressure Visibility Wind Dir Wind Speed Gust Speed Precip Events Conditions
12:16 AM 21.2 °F 14.9 °F 19.4 °F 93% 30.06 in 6.0 mi Variable 4.6 mph - N/A   Overcast
12:46 AM 21.2 °F - 19.4 °F 93% 30.05 in 5.0 mi South 2.3 mph - N/A   Overcast
12:56 AM 21.4 °F - 19.9 °F 94% 30.05 in 5.0 mi Variable 2.3 mph - N/A   Overcast
1:56 AM 21.4 °F - 19.9 °F 94% 30.04 in 4.0 mi Variable 2.3 mph - N/A   Overcast
2:11 AM 21.2 °F 16.4 °F 19.4 °F 93% 30.04 in 4.0 mi ESE 3.5 mph - N/A   Overcast
2:21 AM 21.2 °F - 21.2 °F 100% 30.04 in 1.9 mi Variable 2.3 mph - N/A   Overcast
2:26 AM 21.2 °F - 21.2 °F 100% 30.05 in 0.9 mi SE 1.2 mph - N/A Fog Light Freezing Fog
2:51 AM 21.2 °F - 21.2 °F 100% 30.04 in 1.0 mi Variable 2.3 mph - N/A Fog Patches of Fog
2:56 AM 21.9 °F 17.2 °F 20.7 °F 95% 30.05 in 2.0 mi West 3.5 mph - N/A Fog Patches of Fog
3:01 AM 21.2 °F - 19.4 °F 93% 30.05 in 1.8 mi Variable 1.2 mph - N/A Fog Patches of Fog
3:06 AM 21.2 °F 16.4 °F 19.4 °F 93% 30.05 in 0.9 mi SSW 3.5 mph - N/A Fog Light Freezing Fog
3:56 AM 21.6 °F 16.8 °F 20.3 °F 95% 30.05 in 0.9 mi NW 3.5 mph - N/A Fog Light Freezing Fog
4:01 AM 21.2 °F - 19.4 °F 93% 30.05 in 0.9 mi Variable 1.2 mph - N/A   Mostly Cloudy
4:11 AM 21.2 °F - 19.4 °F 93% 30.06 in 1.0 mi NE 2.3 mph - N/A   Mist
4:16 AM 21.2 °F - 19.4 °F 93% 30.07 in 1.5 mi WNW 1.2 mph - N/A   Mostly Cloudy
4:21 AM 21.2 °F - 19.4 °F 93% 30.07 in 2.5 mi South 2.3 mph - N/A   Mostly Cloudy
4:25 AM 21.2 °F - 19.4 °F 93% 30.08 in 2.2 mi South 2.3 mph - N/A Snow Light Snow
4:30 AM 21.2 °F - 21.2 °F 100% 30.07 in 1.2 mi SE 2.3 mph - N/A Snow Light Snow
4:40 AM 21.2 °F 14.9 °F 21.2 °F 100% 30.08 in 2.2 mi NNE 4.6 mph - N/A Snow Light Snow
4:56 AM 22.5 °F 16.3 °F 21.6 °F 96% 30.10 in 2.8 mi SW 4.6 mph - N/A Snow Light Snow Showers
5:01 AM 23.0 °F 18.4 °F 21.2 °F 93% 30.09 in 3.0 mi Variable 3.5 mph - N/A Snow Light Snow Showers
5:30 AM 23.0 °F 18.4 °F 23.0 °F 100% 30.11 in 4.0 mi SSE 3.5 mph - N/A Rain Light Freezing Rain
5:54 AM 24.8 °F 20.5 °F 23.0 °F 93% 30.10 in 5.0 mi NE 3.5 mph - N/A   Scattered Clouds
5:56 AM 24.8 °F 20.5 °F 23.7 °F 96% 30.10 in 5.0 mi NE 3.5 mph - 0.01 in   Scattered Clouds
6:26 AM 21.2 °F 13.6 °F 19.4 °F 93% 30.11 in 2.8 mi WSW 5.8 mph - N/A   Clear
6:33 AM 21.2 °F - 19.4 °F 93% 30.11 in 2.5 mi SE 1.2 mph - N/A   Partly Cloudy
6:53 AM 19.4 °F 14.3 °F 19.4 °F 100% 30.10 in 3.0 mi East 3.5 mph - N/A   Partly Cloudy
6:56 AM 20.1 °F - 19.4 °F 97% 30.10 in 3.0 mi Variable 1.2 mph - N/A   Partly Cloudy
7:01 AM 21.2 °F 16.4 °F 19.4 °F 93% 30.10 in 2.2 mi Variable 3.5 mph - N/A   Partly Cloudy
7:21 AM 21.2 °F - 19.4 °F 93% 30.10 in 3.0 mi Variable 1.2 mph - N/A   Clear
7:56 AM 21.6 °F 16.8 °F 20.5 °F 96% 30.08 in 4.0 mi NNW 3.5 mph - N/A   Clear
8:56 AM 25.9 °F 21.7 °F 24.6 °F 95% 30.09 in 5.0 mi NW 3.5 mph - N/A   Clear
9:56 AM 25.0 °F 18.1 °F 22.8 °F 91% 30.11 in 3.0 mi WSW 5.8 mph - N/A   Clear
10:56 AM 28.8 °F - 25.5 °F 88% 30.12 in 5.0 mi ESE 1.2 mph - N/A   Clear
11:56 AM 32.5 °F - 27.5 °F 82% 30.11 in 7.0 mi Variable 1.2 mph - N/A   Clear
12:56 PM 35.6 °F 31.7 °F 29.5 °F 78% 30.10 in 9.0 mi SSW 4.6 mph - N/A   Clear
1:56 PM 37.2 °F 34.7 °F 30.7 °F 77% 30.08 in 12.0 mi NNE 3.5 mph - N/A   Mostly Cloudy
2:56 PM 39.2 °F - 31.6 °F 74% 30.07 in 12.0 mi South 2.3 mph - N/A   Mostly Cloudy
3:56 PM 38.5 °F - 32.4 °F 79% 30.05 in 12.0 mi West 2.3 mph - N/A   Mostly Cloudy
4:56 PM 36.5 °F - 31.8 °F 83% 30.03 in 8.0 mi Variable 2.3 mph - N/A   Mostly Cloudy
5:22 PM 37.4 °F - 32.0 °F 81% 30.01 in 7.0 mi North 2.3 mph - N/A Rain Light Rain
5:56 PM 35.1 °F - 32.0 °F 89% 30.00 in 7.0 mi Calm Calm - N/A   Light Drizzle
6:33 PM 33.8 °F - 32.0 °F 93% 29.98 in 7.0 mi Variable 1.2 mph - N/A   Mostly Cloudy
6:56 PM 34.7 °F - 32.4 °F 91% 29.97 in 7.0 mi WNW 2.3 mph - N/A   Mostly Cloudy
7:16 PM 33.8 °F - 32.0 °F 93% 29.97 in 6.0 mi North 2.3 mph - N/A   Overcast
7:56 PM 33.8 °F 28.6 °F 31.8 °F 92% 29.93 in 5.0 mi NW 5.8 mph - N/A   Mostly Cloudy
8:16 PM 33.8 °F 30.8 °F 32.0 °F 93% 29.92 in 4.0 mi North 3.5 mph - N/A   Mostly Cloudy
8:31 PM 33.8 °F 30.8 °F 32.0 °F 93% 29.92 in 3.0 mi WNW 3.5 mph - N/A   Mostly Cloudy
8:56 PM 33.1 °F - 31.6 °F 94% 29.89 in 3.0 mi Variable 2.3 mph - N/A   Mostly Cloudy
9:21 PM 33.8 °F - 32.0 °F 93% 29.89 in 3.0 mi Variable 1.2 mph - N/A   Mostly Cloudy
9:24 PM 33.8 °F - 32.0 °F 93% 29.89 in 3.0 mi ENE 2.3 mph - N/A Rain Light Rain
9:27 PM 33.8 °F - 32.0 °F 93% 29.88 in 3.0 mi North 2.3 mph - N/A Rain Light Rain
9:56 PM 33.6 °F - 32.5 °F 96% 29.87 in 3.0 mi North 2.3 mph - N/A Rain Light Rain Showers
10:11 PM 33.8 °F 30.8 °F 32.0 °F 93% 29.86 in 2.8 mi NNW 3.5 mph - N/A Rain Light Rain Showers
10:56 PM 33.4 °F - 32.5 °F 96% 29.83 in 2.0 mi Variable 2.3 mph - 0.02 in Rain Light Rain
11:01 PM 33.8 °F - 32.0 °F 93% 29.82 in 1.9 mi Variable 1.2 mph - N/A Rain Light Rain
11:11 PM 33.8 °F - 32.0 °F 93% 29.82 in 0.9 mi Calm Calm - N/A Rain Rain
11:21 PM 33.8 °F - 32.0 °F 93% 29.81 in 1.5 mi Variable 1.2 mph - N/A Rain Rain
11:51 PM 33.8 °F - 32.0 °F 93% 29.78 in 1.4 mi SW 2.3 mph - N/A Rain , Snow Light Rain
11:56 PM 32.9 °F - 32.4 °F 98% 29.77 in 1.5 mi South 2.3 mph - 0.06 in Rain , Snow Light Rain